Time,TemperatureF,DewpointF,PressureIn,WindDirection,WindDirectionDegrees,WindSpeedMPH,WindSpeedGustMPH,Humidity,HourlyPrecipIn,Conditions,Clouds,dailyrainin,SolarRadiationWatts/m^2,SoftwareType,DateUTC
2013-01-18 00:12:00,20.9,16.0,30.37,WNW,294,4.0,4.0,82,0.00,,,0.00,0,weatherlink.com 1.10,2013-01-18 06:12:00,
2013-01-18 00:27:00,20.7,16.0,30.38,WNW,294,4.0,4.0,81,0.00,,,0.00,0,weatherlink.com 1.10,2013-01-18 06:27:00,
2013-01-18 00:42:00,20.3,15.0,30.37,WNW,294,1.0,2.0,81,0.00,,,0.00,0,weatherlink.com 1.10,2013-01-18 06:42:00,
2013-01-18 00:57:00,20.4,15.0,30.38,WNW,294,2.0,4.0,81,0.00,,,0.00,0,weatherlink.com 1.10,2013-01-18 06:57:00,
2013-01-18 01:12:00,20.1,15.0,30.38,WNW,294,2.0,3.0,81,0.00,,,0.00,0,weatherlink.com 1.10,2013-01-18 07:12:00,
2013-01-18 01:27:00,19.1,15.0,30.39,WNW,292,0.0,3.0,83,0.00,,,0.00,0,weatherlink.com 1.10,2013-01-18 07:27:00,
2013-01-18 01:42:00,19.7,16.0,30.38,WNW,292,2.0,4.0,85,0.00,,,0.00,0,weatherlink.com 1.10,2013-01-18 07:42:00,
2013-01-18 01:57:00,19.9,16.0,30.38,WNW,292,2.0,3.0,85,0.00,,,0.00,0,weatherlink.com 1.10,2013-01-18 07:57:00,
2013-01-18 02:12:00,19.8,16.0,30.38,WNW,292,1.0,2.0,85,0.00,,,0.00,0,weatherlink.com 1.10,2013-01-18 08:12:00,
2013-01-18 02:27:00,19.7,16.0,30.38,WNW,292,2.0,3.0,86,0.00,,,0.00,0,weatherlink.com 1.10,2013-01-18 08:27:00,
2013-01-18 02:42:00,19.9,17.0,30.37,WNW,292,3.0,4.0,87,0.00,,,0.00,0,weatherlink.com 1.10,2013-01-18 08:42:00,
2013-01-18 02:57:00,20.4,17.0,30.36,WNW,292,4.0,5.0,87,0.00,,,0.00,0,weatherlink.com 1.10,2013-01-18 08:57:00,
2013-01-18 03:12:00,20.5,17.0,30.34,SE,140,3.0,5.0,87,0.00,,,0.00,0,weatherlink.com 1.10,2013-01-18 09:12:00,
2013-01-18 03:28:00,20.5,17.0,30.34,SE,140,4.0,5.0,86,0.00,,,0.00,0,weatherlink.com 1.10,2013-01-18 09:28:00,
2013-01-18 03:43:00,19.9,16.0,30.33,SSE,148,6.0,6.0,86,0.00,,,0.00,0,weatherlink.com 1.10,2013-01-18 09:43:00,
2013-01-18 03:58:00,19.7,17.0,30.32,SSE,151,5.0,6.0,87,0.00,,,0.00,0,weatherlink.com 1.10,2013-01-18 09:58:00,
2013-01-18 04:13:00,19.4,16.0,30.32,SSE,163,5.0,6.0,87,0.00,,,0.00,0,weatherlink.com 1.10,2013-01-18 10:13:00,
2013-01-18 04:28:00,19.1,16.0,30.31,SSE,163,8.0,8.0,87,0.00,,,0.00,0,weatherlink.com 1.10,2013-01-18 10:28:00,
2013-01-18 04:43:00,19.7,17.0,30.31,SSE,162,7.0,9.0,87,0.00,,,0.00,0,weatherlink.com 1.10,2013-01-18 10:43:00,
2013-01-18 04:58:00,20.3,17.0,30.31,SSE,159,9.0,10.0,85,0.00,,,0.00,0,weatherlink.com 1.10,2013-01-18 10:58:00,
2013-01-18 05:13:00,20.4,17.0,30.31,SSE,163,5.0,7.0,86,0.00,,,0.00,0,weatherlink.com 1.10,2013-01-18 11:13:00,
2013-01-18 05:28:00,21.1,17.0,30.30,SSE,161,11.0,13.0,85,0.00,,,0.00,0,weatherlink.com 1.10,2013-01-18 11:28:00,
2013-01-18 05:43:00,21.3,17.0,30.28,SSE,159,14.0,16.0,84,0.00,,,0.00,0,weatherlink.com 1.10,2013-01-18 11:43:00,
2013-01-18 05:58:00,21.6,18.0,30.27,SSE,165,11.0,14.0,84,0.00,,,0.00,0,weatherlink.com 1.10,2013-01-18 11:58:00,
2013-01-18 06:13:00,22.0,18.0,30.27,SSE,163,10.0,13.0,84,0.00,,,0.00,0,weatherlink.com 1.10,2013-01-18 12:13:00,
2013-01-18 06:28:00,22.6,19.0,30.26,SSE,159,12.0,14.0,84,0.00,,,0.00,0,weatherlink.com 1.10,2013-01-18 12:28:00,
2013-01-18 06:43:00,23.8,19.0,30.24,South,184,13.0,18.0,83,0.00,,,0.00,0,weatherlink.com 1.10,2013-01-18 12:43:00,
2013-01-18 06:58:00,24.4,20.0,30.23,South,184,16.0,20.0,83,0.00,,,0.00,0,weatherlink.com 1.10,2013-01-18 12:58:00,
2013-01-18 07:13:00,25.2,20.0,30.21,South,190,16.0,19.0,82,0.00,,,0.00,0,weatherlink.com 1.10,2013-01-18 13:13:00,
2013-01-18 07:28:00,25.5,21.0,30.21,SSW,192,21.0,21.0,82,0.00,,,0.00,0,weatherlink.com 1.10,2013-01-18 13:28:00,
2013-01-18 07:43:00,26.3,21.0,30.20,SSW,196,17.0,23.0,81,0.00,,,0.00,12,weatherlink.com 1.10,2013-01-18 13:43:00,
2013-01-18 07:58:00,26.5,21.0,30.20,SSW,196,13.0,22.0,81,0.00,,,0.00,32,weatherlink.com 1.10,2013-01-18 13:58:00,
2013-01-18 08:13:00,27.1,22.0,30.18,SSW,198,19.0,23.0,82,0.00,,,0.00,67,weatherlink.com 1.10,2013-01-18 14:13:00,
2013-01-18 08:28:00,28.2,23.0,30.18,South,182,20.0,28.0,81,0.00,,,0.00,81,weatherlink.com 1.10,2013-01-18 14:28:00,
2013-01-18 08:44:00,28.6,24.0,30.17,South,190,20.0,25.0,81,0.00,,,0.00,76,weatherlink.com 1.10,2013-01-18 14:44:00,
2013-01-18 08:59:00,29.7,24.0,30.16,SSW,196,25.0,30.0,78,0.00,,,0.00,100,weatherlink.com 1.10,2013-01-18 14:59:00,
2013-01-18 09:14:00,30.2,24.0,30.16,South,191,23.0,31.0,77,0.00,,,0.00,127,weatherlink.com 1.10,2013-01-18 15:14:00,
2013-01-18 09:29:00,30.6,25.0,30.15,SSW,197,19.0,32.0,78,0.00,,,0.00,167,weatherlink.com 1.10,2013-01-18 15:29:00,
2013-01-18 09:44:00,30.9,25.0,30.15,SSW,192,18.0,26.0,77,0.00,,,0.00,190,weatherlink.com 1.10,2013-01-18 15:44:00,
2013-01-18 09:59:00,31.9,25.0,30.14,SSW,195,18.0,26.0,76,0.00,,,0.00,258,weatherlink.com 1.10,2013-01-18 15:59:00,
2013-01-18 10:14:00,32.4,26.0,30.13,SSW,198,21.0,31.0,76,0.00,,,0.00,359,weatherlink.com 1.10,2013-01-18 16:14:00,
2013-01-18 10:29:00,33.0,26.0,30.12,SSW,199,20.0,29.0,76,0.00,,,0.00,383,weatherlink.com 1.10,2013-01-18 16:29:00,
2013-01-18 10:44:00,33.8,27.0,30.11,SSW,205,26.0,28.0,77,0.00,,,0.00,406,weatherlink.com 1.10,2013-01-18 16:44:00,
2013-01-18 10:59:00,34.7,27.0,30.09,SSW,210,22.0,28.0,74,0.00,,,0.00,425,weatherlink.com 1.10,2013-01-18 16:59:00,
2013-01-18 11:14:00,35.7,28.0,30.07,SSW,204,28.0,29.0,73,0.00,,,0.00,450,weatherlink.com 1.10,2013-01-18 17:14:00,
2013-01-18 11:29:00,37.0,29.0,30.04,SW,217,27.0,34.0,72,0.00,,,0.00,478,weatherlink.com 1.10,2013-01-18 17:29:00,
2013-01-18 11:44:00,38.1,29.0,30.03,SW,224,29.0,33.0,71,0.00,,,0.00,497,weatherlink.com 1.10,2013-01-18 17:44:00,
2013-01-18 11:59:00,38.3,30.0,30.02,SSW,211,27.0,35.0,72,0.00,,,0.00,492,weatherlink.com 1.10,2013-01-18 17:59:00,
2013-01-18 12:14:00,38.9,30.0,30.00,SW,215,26.0,35.0,70,0.00,,,0.00,582,weatherlink.com 1.10,2013-01-18 18:14:00,
2013-01-18 12:29:00,39.4,31.0,29.98,SSW,208,26.0,35.0,71,0.00,,,0.00,422,weatherlink.com 1.10,2013-01-18 18:29:00,
2013-01-18 12:45:00,39.8,31.0,29.96,SSW,201,24.0,33.0,70,0.00,,,0.00,359,weatherlink.com 1.10,2013-01-18 18:45:00,
2013-01-18 13:00:00,40.8,32.0,29.95,SSW,209,34.0,35.0,70,0.00,,,0.00,573,weatherlink.com 1.10,2013-01-18 19:00:00,
2013-01-18 13:15:00,41.1,32.0,29.93,SSW,207,31.0,33.0,70,0.00,,,0.00,446,weatherlink.com 1.10,2013-01-18 19:15:00,
2013-01-18 13:30:00,41.3,32.0,29.91,SW,219,22.0,38.0,70,0.00,,,0.00,420,weatherlink.com 1.10,2013-01-18 19:30:00,
2013-01-18 13:45:00,41.7,32.0,29.91,SSW,200,25.0,39.0,69,0.00,,,0.00,401,weatherlink.com 1.10,2013-01-18 19:45:00,
2013-01-18 14:00:00,42.0,32.0,29.89,SSW,211,22.0,36.0,69,0.00,,,0.00,381,weatherlink.com 1.10,2013-01-18 20:00:00,
2013-01-18 14:15:00,42.3,33.0,29.90,SSW,207,19.0,30.0,70,0.00,,,0.00,318,weatherlink.com 1.10,2013-01-18 20:15:00,
2013-01-18 14:30:00,42.6,33.0,29.89,SSW,201,23.0,33.0,70,0.00,,,0.00,327,weatherlink.com 1.10,2013-01-18 20:30:00,
2013-01-18 14:45:00,42.8,33.0,29.89,SSW,212,26.0,29.0,69,0.00,,,0.00,285,weatherlink.com 1.10,2013-01-18 20:45:00,
2013-01-18 15:00:00,43.2,34.0,29.88,SW,222,22.0,32.0,70,0.00,,,0.00,271,weatherlink.com 1.10,2013-01-18 21:00:00,
2013-01-18 15:15:00,43.3,34.0,29.88,SW,228,24.0,40.0,69,0.00,,,0.00,232,weatherlink.com 1.10,2013-01-18 21:15:00,
2013-01-18 15:30:00,43.2,33.0,29.87,SW,223,22.0,33.0,68,0.00,,,0.00,200,weatherlink.com 1.10,2013-01-18 21:30:00,
2013-01-18 15:45:00,43.1,34.0,29.86,SSW,213,20.0,28.0,69,0.00,,,0.00,179,weatherlink.com 1.10,2013-01-18 21:45:00,
2013-01-18 16:00:00,42.9,33.0,29.86,SSW,196,20.0,26.0,69,0.00,,,0.00,139,weatherlink.com 1.10,2013-01-18 22:00:00,
2013-01-18 16:15:00,42.7,34.0,29.86,SW,218,18.0,25.0,70,0.00,,,0.00,91,weatherlink.com 1.10,2013-01-18 22:15:00,
2013-01-18 16:30:00,42.1,33.0,29.86,SW,219,18.0,24.0,71,0.00,,,0.00,49,weatherlink.com 1.10,2013-01-18 22:30:00,
2013-01-18 16:45:00,41.5,33.0,29.86,SSW,205,18.0,23.0,72,0.00,,,0.00,14,weatherlink.com 1.10,2013-01-18 22:45:00,
2013-01-18 17:00:00,40.5,33.0,29.86,SSW,202,17.0,19.0,74,0.00,,,0.00,5,weatherlink.com 1.10,2013-01-18 23:00:00,
2013-01-18 17:15:00,40.3,33.0,29.86,SW,214,18.0,21.0,75,0.00,,,0.00,0,weatherlink.com 1.10,2013-01-18 23:15:00,
2013-01-18 17:30:00,40.1,33.0,29.86,SSW,210,20.0,22.0,75,0.00,,,0.00,0,weatherlink.com 1.10,2013-01-18 23:30:00,
2013-01-18 17:45:00,39.8,33.0,29.85,SSW,202,19.0,20.0,76,0.00,,,0.00,0,weatherlink.com 1.10,2013-01-18 23:45:00,
2013-01-18 18:00:00,39.7,33.0,29.85,SSW,207,17.0,21.0,77,0.00,,,0.00,0,weatherlink.com 1.10,2013-01-19 00:00:00,
2013-01-18 18:15:00,39.8,33.0,29.85,SSW,204,18.0,23.0,76,0.00,,,0.00,0,weatherlink.com 1.10,2013-01-19 00:15:00,
2013-01-18 18:30:00,39.9,33.0,29.86,SSW,210,15.0,22.0,77,0.00,,,0.00,0,weatherlink.com 1.10,2013-01-19 00:30:00,
2013-01-18 18:45:00,40.0,33.0,29.86,SSW,213,11.0,19.0,76,0.00,,,0.00,0,weatherlink.com 1.10,2013-01-19 00:45:00,
2013-01-18 19:00:00,40.0,33.0,29.86,SW,217,18.0,19.0,76,0.00,,,0.00,0,weatherlink.com 1.10,2013-01-19 01:00:00,
2013-01-18 19:15:00,40.9,33.0,29.86,SW,224,14.0,21.0,74,0.00,,,0.00,0,weatherlink.com 1.10,2013-01-19 01:15:00,
2013-01-18 19:30:00,41.2,33.0,29.86,SW,221,21.0,24.0,73,0.00,,,0.00,0,weatherlink.com 1.10,2013-01-19 01:30:00,
2013-01-18 19:45:00,40.4,33.0,29.86,SW,223,15.0,20.0,75,0.00,,,0.00,0,weatherlink.com 1.10,2013-01-19 01:45:00,
2013-01-18 20:00:00,40.2,33.0,29.86,SW,229,16.0,17.0,75,0.00,,,0.00,0,weatherlink.com 1.10,2013-01-19 02:00:00,
2013-01-18 20:15:00,40.5,33.0,29.85,SW,223,19.0,22.0,75,0.00,,,0.00,0,weatherlink.com 1.10,2013-01-19 02:15:00,
2013-01-18 20:30:00,40.7,33.0,29.85,SW,226,17.0,22.0,74,0.00,,,0.00,0,weatherlink.com 1.10,2013-01-19 02:30:00,
2013-01-18 20:45:00,40.8,33.0,29.85,SW,224,17.0,22.0,74,0.00,,,0.00,0,weatherlink.com 1.10,2013-01-19 02:45:00,
2013-01-18 21:00:00,40.7,33.0,29.85,SW,228,17.0,22.0,74,0.00,,,0.00,0,weatherlink.com 1.10,2013-01-19 03:00:00,
2013-01-18 21:15:00,40.9,33.0,29.85,SW,232,14.0,25.0,74,0.00,,,0.00,0,weatherlink.com 1.10,2013-01-19 03:15:00,
2013-01-18 21:30:00,40.7,33.0,29.86,SW,229,18.0,20.0,74,0.00,,,0.00,0,weatherlink.com 1.10,2013-01-19 03:30:00,
2013-01-18 21:45:00,40.7,33.0,29.85,SW,231,16.0,21.0,74,0.00,,,0.00,0,weatherlink.com 1.10,2013-01-19 03:45:00,
2013-01-18 22:00:00,40.5,33.0,29.85,SW,234,14.0,21.0,74,0.00,,,0.00,0,weatherlink.com 1.10,2013-01-19 04:00:00,
2013-01-18 22:15:00,40.1,33.0,29.84,SW,233,14.0,20.0,75,0.00,,,0.00,0,weatherlink.com 1.10,2013-01-19 04:15:00,
2013-01-18 22:30:00,40.3,33.0,29.84,WSW,241,16.0,22.0,74,0.00,,,0.00,0,weatherlink.com 1.10,2013-01-19 04:30:00,
2013-01-18 22:45:00,40.0,33.0,29.83,WSW,238,17.0,22.0,75,0.00,,,0.00,0,weatherlink.com 1.10,2013-01-19 04:45:00,
2013-01-18 23:15:00,39.1,32.0,29.84,SW,229,12.0,18.0,76,0.00,,,0.00,0,weatherlink.com 1.10,2013-01-19 05:15:00,
2013-01-18 23:30:00,38.8,32.0,29.84,SW,227,15.0,18.0,77,0.00,,,0.00,0,weatherlink.com 1.10,2013-01-19 05:30:00,
2013-01-18 23:45:00,38.1,32.0,29.83,SW,231,13.0,19.0,79,0.00,,,0.00,0,weatherlink.com 1.10,2013-01-19 05:45:00,